Previsão horária em Alifanov

Hoje, 16 Janeiro, Sábado

Tempo Temperatura Precipitação Vento Pressão Humidade
00:00 -9°C° 0.1 mm 4 m/s 752 mmHg 94%
01:00 -9°C° 0 mm 4 m/s 752 mmHg 93%
02:00 -8°C° 0 mm 3 m/s 752 mmHg 92%
03:00 -8°C° 0 mm 3 m/s 753 mmHg 91%
04:00 -7°C° 0 mm 3 m/s 753 mmHg 92%
05:00 -8°C° 0 mm 4 m/s 753 mmHg 92%
06:00 -8°C° 0 mm 5 m/s 752 mmHg 92%
07:00 -8°C° 0.1 mm 5 m/s 753 mmHg 90%
08:00 -10°C° 0.1 mm 6 m/s 753 mmHg 89%
09:00 -11°C° 0.1 mm 6 m/s 754 mmHg 87%
10:00 -12°C° 0 mm 7 m/s 754 mmHg 83%
11:00 -12°C° 0 mm 7 m/s 755 mmHg 79%
12:00 -13°C° 0 mm 7 m/s 755 mmHg 76%
13:00 -13°C° 0 mm 7 m/s 756 mmHg 77%
14:00 -12°C° 0 mm 6 m/s 756 mmHg 78%
15:00 -12°C° 0 mm 6 m/s 756 mmHg 79%
16:00 -12°C° 0 mm 5 m/s 756 mmHg 81%
17:00 -12°C° 0 mm 4 m/s 757 mmHg 84%
18:00 -13°C° 0 mm 3 m/s 757 mmHg 87%
19:00 -13°C° 0 mm 3 m/s 757 mmHg 88%
20:00 -13°C° 0 mm 3 m/s 757 mmHg 89%
21:00 -13°C° 0 mm 2 m/s 757 mmHg 90%
22:00 -13°C° 0 mm 2 m/s 757 mmHg 89%
23:00 -13°C° 0 mm 2 m/s 757 mmHg 89%

Amanhã, 17 Janeiro, Domingo

Tempo Temperatura Precipitação Vento Pressão Humidade
00:00 -13°C° 0 mm 2 m/s 757 mmHg 89%
01:00 -13°C° 0 mm 2 m/s 757 mmHg 88%
02:00 -11°C° 0 mm 1 m/s 757 mmHg 88%
03:00 -11°C° 0 mm 1 m/s 757 mmHg 87%
04:00 -11°C° 0 mm 1 m/s 756 mmHg 87%
05:00 -11°C° 0 mm 1 m/s 756 mmHg 87%
06:00 -11°C° 0 mm 1 m/s 756 mmHg 86%
07:00 -11°C° 0 mm 1 m/s 756 mmHg 87%
08:00 -13°C° 0 mm 2 m/s 756 mmHg 87%
09:00 -13°C° 0 mm 2 m/s 756 mmHg 87%
10:00 -12°C° 0 mm 2 m/s 756 mmHg 87%
11:00 -13°C° 0 mm 3 m/s 756 mmHg 86%
12:00 -12°C° 0 mm 3 m/s 755 mmHg 85%
13:00 -12°C° 0 mm 3 m/s 755 mmHg 86%
14:00 -12°C° 0 mm 3 m/s 755 mmHg 87%
15:00 -12°C° 0 mm 3 m/s 755 mmHg 88%
16:00 -12°C° 0.1 mm 4 m/s 755 mmHg 89%
17:00 -12°C° 0.1 mm 4 m/s 755 mmHg 90%
18:00 -14°C° 0.1 mm 4 m/s 755 mmHg 91%
19:00 -14°C° 0.1 mm 5 m/s 755 mmHg 91%
20:00 -14°C° 0.1 mm 5 m/s 755 mmHg 92%
21:00 -14°C° 0.1 mm 5 m/s 755 mmHg 93%
22:00 -14°C° 0.2 mm 5 m/s 755 mmHg 93%
23:00 -15°C° 0.2 mm 5 m/s 755 mmHg 93%

Depois de amanhã, 18 Janeiro, Segunda-feira

Tempo Temperatura Precipitação Vento Pressão Humidade
00:00 -15°C° 0.2 mm 4 m/s 755 mmHg 93%
01:00 -15°C° 0.5 mm 4 m/s 755 mmHg 93%
02:00 -15°C° 0.5 mm 5 m/s 755 mmHg 94%
03:00 -15°C° 0.5 mm 5 m/s 755 mmHg 94%
04:00 -16°C° 0.8 mm 4 m/s 755 mmHg 94%
05:00 -16°C° 0.8 mm 4 m/s 755 mmHg 94%
06:00 -16°C° 0.8 mm 4 m/s 755 mmHg 94%
07:00 -16°C° 0.9 mm 4 m/s 755 mmHg 94%
08:00 -16°C° 0.9 mm 4 m/s 756 mmHg 95%
09:00 -16°C° 0.9 mm 4 m/s 756 mmHg 95%
10:00 -16°C° 0.5 mm 4 m/s 756 mmHg 94%
11:00 -15°C° 0.5 mm 3 m/s 756 mmHg 94%
12:00 -14°C° 0.5 mm 3 m/s 757 mmHg 94%
13:00 -14°C° 0.2 mm 3 m/s 757 mmHg 93%
14:00 -14°C° 0.2 mm 3 m/s 757 mmHg 93%
15:00 -12°C° 0.2 mm 2 m/s 757 mmHg 93%
16:00 -14°C° 0 mm 2 m/s 757 mmHg 93%
17:00 -15°C° 0 mm 2 m/s 757 mmHg 94%
18:00 -14°C° 0 mm 1 m/s 758 mmHg 95%
19:00 -14°C° 0 mm 1 m/s 758 mmHg 95%
20:00 -14°C° 0 mm 1 m/s 758 mmHg 95%
21:00 -14°C° 0 mm 1 m/s 758 mmHg 95%
22:00 -14°C° 0 mm 1 m/s 758 mmHg 95%
23:00 -14°C° 0 mm 1 m/s 758 mmHg 95%

19 Janeiro, Terça-feira

Tempo Temperatura Precipitação Vento Pressão Humidade
00:00 -14°C° 0 mm 1 m/s 758 mmHg 96%
01:00 -15°C° 0 mm 1 m/s 758 mmHg 96%
02:00 -16°C° 0 mm 0 m/s 758 mmHg 97%
03:00 -16°C° 0 mm 0 m/s 758 mmHg 97%
04:00 -16°C° 0 mm 1 m/s 758 mmHg 97%
05:00 -17°C° 0 mm 1 m/s 758 mmHg 97%
06:00 -17°C° 0 mm 1 m/s 758 mmHg 97%
07:00 -17°C° 0 mm 1 m/s 758 mmHg 97%
08:00 -17°C° 0 mm 1 m/s 758 mmHg 97%
09:00 -17°C° 0 mm 1 m/s 759 mmHg 97%
10:00 -15°C° 0 mm 1 m/s 759 mmHg 95%
11:00 -14°C° 0 mm 1 m/s 759 mmHg 92%
12:00 -13°C° 0 mm 1 m/s 759 mmHg 90%
13:00 -13°C° 0 mm 1 m/s 759 mmHg 91%
14:00 -13°C° 0 mm 1 m/s 758 mmHg 92%
15:00 -14°C° 0 mm 2 m/s 758 mmHg 92%
16:00 -16°C° 0 mm 2 m/s 758 mmHg 94%
17:00 -17°C° 0 mm 2 m/s 759 mmHg 95%
18:00 -21°C° 0 mm 3 m/s 759 mmHg 96%
19:00 -19°C° 0 mm 2 m/s 760 mmHg 96%
20:00 -20°C° 0 mm 2 m/s 760 mmHg 96%
21:00 -20°C° 0 mm 2 m/s 761 mmHg 96%
22:00 -20°C° 0 mm 2 m/s 761 mmHg 96%
23:00 -20°C° 0 mm 2 m/s 761 mmHg 95%

20 Janeiro, Quarta-feira

Tempo Temperatura Precipitação Vento Pressão Humidade
00:00 -22°C° 0 mm 3 m/s 761 mmHg 95%
01:00 -22°C° 0 mm 3 m/s 762 mmHg 96%
02:00 -22°C° 0 mm 3 m/s 762 mmHg 96%
03:00 -23°C° 0 mm 3 m/s 762 mmHg 96%
04:00 -23°C° 0 mm 3 m/s 762 mmHg 96%
05:00 -23°C° 0 mm 3 m/s 763 mmHg 96%
06:00 -23°C° 0 mm 3 m/s 763 mmHg 97%
07:00 -23°C° 0 mm 3 m/s 763 mmHg 96%
08:00 -21°C° 0 mm 2 m/s 764 mmHg 96%
09:00 -23°C° 0 mm 2 m/s 764 mmHg 96%
10:00 -21°C° 0 mm 2 m/s 764 mmHg 95%
11:00 -21°C° 0 mm 3 m/s 765 mmHg 93%
12:00 -19°C° 0 mm 3 m/s 765 mmHg 92%
13:00 -18°C° 0 mm 2 m/s 765 mmHg 92%
14:00 -17°C° 0 mm 2 m/s 765 mmHg 92%
15:00 -17°C° 0 mm 2 m/s 765 mmHg 92%
16:00 -18°C° 0 mm 2 m/s 766 mmHg 93%
17:00 -19°C° 0 mm 2 m/s 766 mmHg 94%
18:00 -21°C° 0 mm 2 m/s 766 mmHg 95%
19:00 -21°C° 0 mm 2 m/s 767 mmHg 95%
20:00 -19°C° 0 mm 1 m/s 767 mmHg 95%
21:00 -19°C° 0 mm 1 m/s 767 mmHg 95%
22:00 -19°C° 0 mm 1 m/s 767 mmHg 95%
23:00 -19°C° 0 mm 1 m/s 768 mmHg 95%

21 Janeiro, Quinta-feira

Tempo Temperatura Precipitação Vento Pressão Humidade
00:00 -19°C° 0 mm 1 m/s 768 mmHg 96%
01:00 -19°C° 0 mm 1 m/s 768 mmHg 96%
02:00 -19°C° 0 mm 1 m/s 768 mmHg 96%
03:00 -19°C° 0 mm 1 m/s 768 mmHg 96%
04:00 -19°C° 0 mm 1 m/s 768 mmHg 95%
05:00 -19°C° 0 mm 1 m/s 769 mmHg 95%
06:00 -19°C° 0 mm 1 m/s 769 mmHg 95%
07:00 -20°C° 0 mm 2 m/s 769 mmHg 95%
08:00 -19°C° 0 mm 2 m/s 769 mmHg 95%
09:00 -19°C° 0 mm 2 m/s 769 mmHg 95%
10:00 -18°C° 0 mm 3 m/s 769 mmHg 94%
11:00 -16°C° 0 mm 3 m/s 769 mmHg 94%
12:00 -16°C° 0 mm 4 m/s 769 mmHg 93%
13:00 -15°C° 0 mm 4 m/s 769 mmHg 93%
14:00 -15°C° 0 mm 4 m/s 769 mmHg 93%
15:00 -14°C° 0 mm 4 m/s 768 mmHg 93%
16:00 -15°C° 0 mm 4 m/s 768 mmHg 93%
17:00 -15°C° 0 mm 4 m/s 768 mmHg 93%
18:00 -16°C° 0 mm 4 m/s 768 mmHg 93%
19:00 -15°C° 0 mm 4 m/s 768 mmHg 93%
20:00 -14°C° 0 mm 5 m/s 767 mmHg 92%
21:00 -14°C° 0 mm 5 m/s 767 mmHg 91%
22:00 -13°C° 0 mm 5 m/s 767 mmHg 92%
23:00 -12°C° 0 mm 5 m/s 767 mmHg 92%
Mostrar mais

Necessitamos do seu Consentimento

A Meteoprog e os seus Fornecedores de Serviços podem armazenar e aceder a dados pessoais como cookies, identificadores do dispositivo ou outras tecnologias semelhantes existentes no seu dispositivo e processar estes dados para personalizar conteúdos e anúncios, assim como funcionalidades nas redes sociais e análise de tráfego.

  • Armazenar e/ou aceder a informações no seu dispositivo

    Os cookies, identificadores do dispositivo ou outras informações podem ser armazenados ou acedidos no seu dispositivo, para os fins acima indicados.

  • Anúncios e conteúdos personalizados, medição de anúncios e conteúdos, dados sobre o público-alvo e desenvolvimento de produtos

    Os anúncios e os conteúdos podem ser personalizados com base num perfil. Podem ser adicionados dados adicionais para uma maior personalização dos anúncios e dos conteúdos. A eficácia dos anúncios e dos conteúdos pode ser medida. Podem ser obtidas informações sobre o público que visualizou os anúncios e os conteúdos. Estes dados podem ser usados para desenvolver ou melhorar sistemas, softwares ou a experiência do utilizador.

Ao clicar em "Eu concordo”, permitirá o uso de cookies, identificadores do dispositivo e web beacons mencionados ou outras tecnologias semelhantes. As configurações do navegador do seu dispositivo podem ser alteradas.

Para certos fins, podem ser invocados interesses legítimos ao invés de consentimento. Pode ler mais informação sobre este assunto na nossa Política de Privacidade e Cookies.